Location: Ferques
(50.8300°N, 1.7599°E)
Time: 04:18:38
(UTC+00:00)

SL-16 R/B - Pass Details

Date: 19 May 2025
Orbit: 841 x 844 km, 71.0° (Epoch: 13 June)

Event Time Altitude Azimuth Distance (km) Brightness Sun altitude
Rises 22:39:57 0° 330° (NNW) 3,415 6.9 -17.6°
Reaches altitude 10° 22:42:25 10° 332° (NNW) 2,476 5.9 -17.7°
Maximum altitude 22:48:07 75° 58° (ENE) 877 2.3 -17.9°
Enters shadow 22:51:13 28° 140° (SE) 1,539 3.0 -18.0°
